Weather observations for the past three days for
McCook, McCook Municipal Airport
Imperial (Metric)
Date Time (cdt) Wind (mph) Vis. (mi.) Weather Sky Cond. Temperature (ºF) Relative Humidity Wind Chill (°F) Heat Index (°F) Pressure Precipitation (in)
Air Dwpt 6 hour altimeter (in) sea level (mb) 1 hr 3 hr 6 hr
Max. Min.
19 12:53 S 13 10.00 Fair CLR 90 63 90 66.9 41% 91 30.07 1015.4
19 11:53 S 14 G 21 10.00 Fair CLR 87.1 64 46% 88 30.07 1015.5
19 10:53 S 14 G 23 10.00 Fair CLR 82.9 63 51% 84 30.09 1016.2
19 09:53 S 18 G 28 10.00 Fair CLR 79 62.1 56% 80 30.1 1016.7
19 08:53 S 15 10.00 Fair CLR 73.9 63 69% 30.1 1016.7
19 07:53 S 6 10.00 Fair CLR 70 63 79% 30.12 1017.3
19 06:53 S 3 10.00 Fair CLR 68 62.1 72 66.9 81% 30.11 1017.0
19 05:53 SE 6 10.00 Fair CLR 68 63 84% 30.11 1016.8
19 04:53 S 10 10.00 Fair CLR 69.1 63 81% 30.11 1016.8
19 03:53 S 8 10.00 Fair CLR 69.1 63 81% 30.11 1016.8
19 02:53 S 8 10.00 Fair CLR 70 63 79% 30.12 1017.2
19 01:53 S 8 10.00 Fair CLR 71.1 62.1 73% 30.13 1017.6
19 00:53 S 6 10.00 Fair CLR 72 61 88 71.1 68% 30.13 1017.7
18 23:53 SE 7 10.00 Fair CLR 73 61 66% 30.13 1017.8
18 22:53 SE 6 10.00 Fair CLR 73.9 62.1 67% 30.14 1018.2
18 21:53 E 5 10.00 Fair CLR 73.9 63 69% 30.13 1018.0
18 20:53 SE 8 10.00 Fair CLR 81 62.1 53% 82 30.11 1017.2
18 19:53 SE 12 10.00 Fair CLR 84.9 62.1 46% 85 30.1 1016.8
18 18:53 SE 12 G 22 10.00 Fair CLR 88 62.1 91 84 42% 88 30.1 1017.0
18 17:53 SE 15 10.00 A Few Clouds FEW070 90 61 38% 90 30.12 1017.4
18 16:53 S 12 10.00 A Few Clouds FEW065 90 61 38% 90 30.13 1017.9
18 15:53 S 13 G 18 10.00 Partly Cloudy SCT065 89.1 62.1 41% 89 30.15 1018.5
18 14:53 Vrbl 7 G 17 10.00 A Few Clouds FEW060 88 61 40% 88 30.16 1018.9
18 13:53 SE 10 10.00 Partly Cloudy SCT055 87.1 62.1 43% 88 30.19 1019.8
18 12:53 SE 13 10.00 Fair CLR 84.9 63 84.9 61 48% 86 30.2 1020.4
18 11:53 S 13 10.00 Fair CLR 82 62.1 51% 83 30.22 1021.1
18 10:53 S 14 G 22 10.00 Fair CLR 79 61 54% 80 30.23 1021.6
18 09:53 S 13 G 20 10.00 Fair CLR 75 60.1 60% 77 30.24 1021.7
18 08:53 SE 7 9.00 Fair CLR 69.1 64 84% 30.24 1022.0
18 07:53 SE 5 6.00 Fog/Mist CLR 64 61 90% 30.24 1022.2
18 06:53 E 6 3.00 Fog/Mist CLR 61 60.1 66 60.1 97% 30.23 1021.5
18 05:53 NE 3 5.00 Fog/Mist CLR 61 60.1 97% 30.22 1021.2
18 04:53 Calm 5.00 Fog/Mist CLR 62.1 61 96% 30.22 1021.0
18 03:53 E 3 9.00 Fair CLR 63 62.1 97% 30.22 1021.1
18 02:53 Calm 10.00 Fair CLR 64.9 62.1 90% 30.23 1021.3
18 01:53 NE 3 10.00 Fair CLR 64.9 63 93% 30.22 1021.1
18 00:53 E 8 10.00 Fair CLR 66 63 84 66 90% 30.21 1020.8
17 23:53 SE 9 10.00 A Few Clouds FEW055 FEW110 66.9 63 87% 30.18 1019.7
17 22:53 W 15 G 29 10.00 Partly Cloudy SCT043 SCT120 69.1 63 81% 30.25 1022.2
17 21:53 SE 7 10.00 Fair CLR 73.9 63 69% 30.21 1020.9
17 20:53 E 7 10.00 Fair CLR 77 63 62% 79 30.19 1020.1
17 19:53 E 10 10.00 Fair CLR 80.1 63 56% 81 30.17 1019.4
17 18:53 E 10 10.00 A Few Clouds FEW060 84 63 87.1 82 49% 85 30.16 1019.1
17 17:53 E 9 10.00 Fair CLR 84.9 62.1 46% 85 30.16 1019.0
17 16:53 SE 8 10.00 Partly Cloudy FEW050 SCT080 86 63 46% 87 30.18 1019.5
17 15:53 E 12 G 18 10.00 A Few Clouds FEW050 84.9 64 50% 86 30.18 1019.7
17 14:53 SE 8 G 16 10.00 Partly Cloudy SCT048 SCT060 84 62.1 48% 85 30.2 1020.5
17 13:53 E 13 10.00 A Few Clouds FEW049 84 62.1 48% 85 30.21 1020.4
17 12:53 E 10 10.00 Fair CLR 82.9 61 84 63 48% 83 30.21 1020.6
17 11:53 E 12 G 17 10.00 Fair CLR 81 63 54% 82 30.21 1020.7
17 10:53 E 10 10.00 Fair CLR 78.1 64 62% 80 30.21 1020.6
17 09:53 E 8 10.00 Fair CLR 75 64 69% 77 30.2 1020.2
17 08:53 NE 7 9.00 Fair CLR 72 63 73% 30.19 1020.0
17 07:53 NE 6 6.00 Fog/Mist CLR 66 63 90% 30.19 1019.9
17 06:53 NE 3 4.00 Fog/Mist CLR 63 61 69.1 62.1 93% 30.17 1019.4
17 05:53 E 5 5.00 Fog/Mist FEW065 63 62.1 97% 30.15 1018.6
17 04:53 NE 3 7.00 Fair CLR 63 61 93% 30.14 1018.2
17 03:53 Calm 9.00 Fair CLR 64 62.1 93% 30.14 1018.0
17 02:53 N 3 9.00 A Few Clouds FEW090 66 63 90% 30.11 1017.0
17 01:53 NE 5 10.00 Fair CLR 66.9 64 91% 30.08 1015.7
17 00:53 SW 5 10.00 Thunderstorm FEW070 SCT090 68 64 84 68 87% 30.09 1016.3
16 23:53 Calm 10.00 Partly Cloudy SCT090 SCT110 70 64 82% 30.09 1016.1
16 22:53 E 10 10.00 Fair CLR 72 64.9 79% 30.08 1016.2
16 21:53 E 15 G 24 10.00 A Few Clouds FEW110 75 66 74% 76 30.05 1014.9
16 20:53 E 12 10.00 Fair CLR 78.1 62.1 58% 80 30.02 1013.9
16 19:53 SE 10 10.00 Fair CLR 82.9 64 53% 84 29.99 1012.8
16 18:53 E 16 10.00 Fair CLR 84 64.9 96.1 84 53% 86 29.97 1012.2
16 17:53 E 18 G 24 10.00 Fair CLR 87.1 64.9 48% 89 29.97 1012.3
16 16:53 E 16 10.00 Fair CLR 87.1 66 50% 89 29.96 1011.7
16 15:53 Vrbl 7 10.00 Partly Cloudy SCT060 90 66 45% 93 29.96 1011.7
16 14:53 Vrbl 6 10.00 Fair CLR 88 64.9 46% 90 29.98 1012.2
16 13:53 Vrbl 5 10.00 Partly Cloudy SCT050 91 66 44% 94 30 1012.6
Date Time (cdt) Wind (mph) Vis. (mi.) Weather Sky Cond. Air Dwpt Max. Min. Relative Humidity Wind Chill (°F) Heat Index (°F) altimeter (in) sea level (mb) 1 hr 3 hr 6 hr
6 hour
Temperature (ºF) Pressure Precipitation (in)